Weather in Snezhinskiy

Russia / Kemerovo Oblast     54°26′27″N   86°22′16″E
temp.,
°C
wind,
m/s
gust,
m/s
humid.,
%
clouds,
%
prec.,
mm/h
press.,
hPa
HPBL,
m
10 may, mon
mon1001:00+5ne512685 0.0 1021445
04:00+4nne512834 0.0 1021405
07:00+5ne510730 0.0 1022407
10:00+10ene45495 0.0 1022980
13:00+14ene45350 0.0 10201476
16:00+16ene56335 0.0 10181972
19:00+16ene68374 0.0 10181941
22:00+11ene6125285 0.0 1018486
11 may, tue
tue1101:00+8ne5116274 0.0 1017331
04:00+6nne41169100 0.0 1016295
07:00+7nne5117143 0.0 1015383
10:00+13ne564499 0.0 10141128
13:00+17ne663214 0.0 10131983
16:00+19ne67265 0.0 10132751
19:00+18ne573022 0.0 10142636
22:00+13nne6134957 0.0 1015380
12 may, wed
wed1201:00+10nne6146025 0.0 1016352
04:00+8nne37705 0.0 1016140
07:00+10nne396722 0.0 1017284
10:00+16ne674389 0.0 10161035
13:00+18ne6631100 0.0 10162751
16:00+19nne6627100 0.0 10162764
19:00+17nne77405 0.0 10171497
22:00+12n37592 0.0 1018137
13 may, thu
thu1301:00+10nne22665 0.0 101832
04:00+8ne116913 0.0 101810
07:00+10nne00615 0.0 101850
10:00+15e22386 0.0 1018857
13:00+18ne112946 0.0 10172313
16:00+19n112637 0.0 10162586
19:00+19n12264 0.0 10152309
22:00+14sw113812 0.0 101511
14 may, fri
fri1401:00+12wnw2249100 0.0 101535
04:00+11wsw2260100 0.0 101422
07:00+10wnw2588100 1.3 1015310
10:00+13nw795579 0.8 10141651
13:00+12nw81157100 0.9 10161409
16:00+14nw81048100 0.1 10162019
19:00+14nw7103697 0.1 10172256
22:00+8nnw48438 0.0 1021214